UWE-4

Last updated on Tue Jan 14 2025 00:03:00 GMT+0000 (Coordinated Universal Time)

1 43880U 18111E 25013.27068907 .00017784 00000+0 85004-3 0 9991 2 43880 97.6005 284.5807 0014874 13.5154 346.6475 15.18976055331211
UTC large
Height (km)
Speed (km/s)
/
Latitude / Longitude
Inclination (degrees)
Orbital Period (minutes)
Azimuth
Elevation
Range (km)
Doppler Factor

Next 0 passes for location: London (51.5072 / 0.1276)

Sorry there are no passes over London.